When you browse on this site, cookies collect data to enhance your experience and personalize the content and advertising you see.
Visit our Privacy Policy to learn more. By continuing to use the site, you agree to this use of cookies and data.
  • In United Kingdom
  • List of Countries
  • For 7 days
  • Water Temperature
  • Satellite Maps
  • Weather Map
  • Weather Widgets
  • user-avatar
    Login

    Hourly Weather Ganta

    Today, 20 February, Wednesday

    Time Temperature Precipitation Wind Pressure Humidity
    00:00 +25°C° 4.4 mm 2 mps 723 mmHg 91%
    01:00 +25°C° 4.4 mm 1 mps 723 mmHg 92%
    02:00 +25°C° 4.4 mm 1 mps 723 mmHg 92%
    03:00 +24°C° 1.4 mm 1 mps 723 mmHg 93%
    04:00 +24°C° 1.4 mm 1 mps 723 mmHg 93%
    05:00 +22°C° 1.4 mm 0 mps 723 mmHg 94%
    06:00 +25°C° 0.1 mm 1 mps 723 mmHg 91%
    07:00 +26°C° 0.1 mm 1 mps 724 mmHg 88%
    08:00 +27°C° 0.1 mm 1 mps 724 mmHg 85%
    09:00 +29°C° 0 mm 1 mps 724 mmHg 71%
    10:00 +32°C° 0 mm 1 mps 724 mmHg 57%
    11:00 +35°C° 0 mm 1 mps 724 mmHg 43%
    12:00 +36°C° 0 mm 1 mps 723 mmHg 40%
    13:00 +35°C° 0 mm 0 mps 723 mmHg 37%
    14:00 +35°C° 0 mm 0 mps 722 mmHg 34%
    15:00 +33°C° 0 mm 0 mps 722 mmHg 41%
    16:00 +33°C° 0 mm 1 mps 722 mmHg 49%
    17:00 +30°C° 0 mm 1 mps 721 mmHg 57%
    18:00 +29°C° 0.1 mm 1 mps 722 mmHg 62%
    19:00 +28°C° 0.1 mm 1 mps 723 mmHg 67%
    20:00 +27°C° 0.1 mm 1 mps 723 mmHg 72%
    21:00 +26°C° 0.4 mm 1 mps 723 mmHg 78%
    22:00 +23°C° 0.4 mm 0 mps 724 mmHg 83%
    23:00 +23°C° 0.4 mm 0 mps 724 mmHg 89%

    Tomorrow, 21 February, Thursday

    Time Temperature Precipitation Wind Pressure Humidity
    00:00 +22°C° 0 mm 0 mps 724 mmHg 91%
    01:00 +22°C° 0 mm 0 mps 723 mmHg 93%
    02:00 +22°C° 0 mm 0 mps 723 mmHg 96%
    03:00 +22°C° 0 mm 0 mps 723 mmHg 96%
    04:00 +21°C° 0 mm 0 mps 723 mmHg 97%
    05:00 +21°C° 0 mm 0 mps 723 mmHg 97%
    06:00 +23°C° 0 mm 0 mps 724 mmHg 91%
    07:00 +26°C° 0 mm 1 mps 725 mmHg 85%
    08:00 +27°C° 0 mm 1 mps 725 mmHg 78%
    09:00 +30°C° 0 mm 1 mps 725 mmHg 66%
    10:00 +32°C° 0 mm 0 mps 725 mmHg 53%
    11:00 +35°C° 0 mm 0 mps 725 mmHg 41%
    12:00 +35°C° 0 mm 0 mps 724 mmHg 41%
    13:00 +34°C° 0 mm 0 mps 723 mmHg 42%
    14:00 +33°C° 0 mm 0 mps 722 mmHg 42%
    15:00 +33°C° 0 mm 0 mps 722 mmHg 44%
    16:00 +34°C° 0 mm 1 mps 722 mmHg 46%
    17:00 +34°C° 0 mm 1 mps 722 mmHg 48%
    18:00 +32°C° 0 mm 1 mps 723 mmHg 56%
    19:00 +30°C° 0 mm 1 mps 724 mmHg 64%
    20:00 +28°C° 0 mm 1 mps 724 mmHg 72%
    21:00 +27°C° 2.3 mm 1 mps 724 mmHg 80%
    22:00 +26°C° 2.3 mm 1 mps 725 mmHg 88%
    23:00 +22°C° 2.3 mm 0 mps 725 mmHg 96%

    Day after tomorrow, 22 February, Friday

    Time Temperature Precipitation Wind Pressure Humidity
    00:00 +22°C° 0.8 mm 0 mps 724 mmHg 96%
    01:00 +22°C° 0.8 mm 0 mps 724 mmHg 96%
    02:00 +22°C° 0.8 mm 0 mps 723 mmHg 96%
    03:00 +22°C° 0 mm 0 mps 723 mmHg 97%
    04:00 +22°C° 0 mm 0 mps 723 mmHg 97%
    05:00 +22°C° 0 mm 0 mps 723 mmHg 98%
    06:00 +25°C° 0 mm 1 mps 724 mmHg 94%
    07:00 +26°C° 0 mm 1 mps 724 mmHg 90%
    08:00 +27°C° 0 mm 1 mps 725 mmHg 87%
    09:00 +29°C° 0.1 mm 1 mps 725 mmHg 75%
    10:00 +31°C° 0.1 mm 1 mps 725 mmHg 64%
    11:00 +34°C° 0.1 mm 1 mps 725 mmHg 53%
    12:00 +35°C° 0 mm 1 mps 724 mmHg 46%
    13:00 +37°C° 0 mm 1 mps 723 mmHg 40%
    14:00 +37°C° 0 mm 0 mps 722 mmHg 33%
    15:00 +37°C° 0 mm 1 mps 722 mmHg 38%
    16:00 +35°C° 0 mm 1 mps 721 mmHg 43%
    17:00 +34°C° 0 mm 1 mps 721 mmHg 48%
    18:00 +32°C° 0 mm 1 mps 722 mmHg 55%
    19:00 +30°C° 0 mm 1 mps 722 mmHg 61%
    20:00 +26°C° 0 mm 0 mps 723 mmHg 68%
    21:00 +27°C° 0.3 mm 1 mps 723 mmHg 76%
    22:00 +26°C° 0.3 mm 1 mps 723 mmHg 84%
    23:00 +25°C° 0.3 mm 1 mps 724 mmHg 92%

    23 February, Saturday

    Time Temperature Precipitation Wind Pressure Humidity
    00:00 +25°C° 0.2 mm 1 mps 723 mmHg 93%
    01:00 +25°C° 0.2 mm 1 mps 723 mmHg 94%
    02:00 +25°C° 0.2 mm 1 mps 722 mmHg 95%
    03:00 +25°C° 0.1 mm 1 mps 723 mmHg 95%
    04:00 +25°C° 0.1 mm 1 mps 723 mmHg 95%
    05:00 +25°C° 0.1 mm 1 mps 723 mmHg 95%
    06:00 +26°C° 0 mm 1 mps 724 mmHg 90%
    07:00 +27°C° 0 mm 1 mps 724 mmHg 84%
    08:00 +28°C° 0 mm 1 mps 725 mmHg 79%
    09:00 +31°C° 0 mm 1 mps 725 mmHg 66%
    10:00 +33°C° 0 mm 1 mps 724 mmHg 52%
    11:00 +36°C° 0 mm 1 mps 724 mmHg 38%
    12:00 +36°C° 0 mm 1 mps 723 mmHg 33%
    13:00 +37°C° 0 mm 1 mps 722 mmHg 28%
    14:00 +39°C° 0 mm 1 mps 721 mmHg 22%
    15:00 +37°C° 0 mm 1 mps 721 mmHg 26%
    16:00 +36°C° 0 mm 1 mps 721 mmHg 29%
    17:00 +34°C° 0 mm 1 mps 721 mmHg 32%
    18:00 +32°C° 0.1 mm 1 mps 721 mmHg 42%
    19:00 +30°C° 0.1 mm 1 mps 722 mmHg 52%
    20:00 +27°C° 0.1 mm 1 mps 722 mmHg 62%
    21:00 +27°C° 0 mm 1 mps 722 mmHg 73%
    22:00 +26°C° 0 mm 1 mps 722 mmHg 83%
    23:00 +25°C° 0 mm 1 mps 722 mmHg 94%

    24 February, Sunday

    Time Temperature Precipitation Wind Pressure Humidity
    00:00 +25°C° 0.1 mm 1 mps 722 mmHg 93%
    01:00 +25°C° 0.1 mm 1 mps 722 mmHg 92%
    02:00 +25°C° 0.1 mm 1 mps 721 mmHg 91%
    03:00 +25°C° 0.1 mm 1 mps 722 mmHg 91%
    04:00 +25°C° 0.1 mm 1 mps 722 mmHg 92%
    05:00 +23°C° 0.1 mm 0 mps 722 mmHg 93%
    06:00 +26°C° 0.1 mm 1 mps 723 mmHg 89%
    07:00 +27°C° 0.1 mm 1 mps 723 mmHg 86%
    08:00 +27°C° 0.1 mm 1 mps 724 mmHg 82%
    09:00 +30°C° 0.1 mm 1 mps 723 mmHg 69%
    10:00 +32°C° 0.1 mm 1 mps 723 mmHg 56%
    11:00 +35°C° 0.1 mm 1 mps 723 mmHg 43%
    12:00 +35°C° 0 mm 1 mps 722 mmHg 40%
    13:00 +36°C° 0 mm 1 mps 721 mmHg 38%
    14:00 +36°C° 0 mm 1 mps 720 mmHg 35%
    15:00 +35°C° 0 mm 1 mps 720 mmHg 38%
    16:00 +34°C° 0 mm 1 mps 720 mmHg 41%
    17:00 +33°C° 0 mm 1 mps 720 mmHg 44%
    18:00 +31°C° 0 mm 1 mps 721 mmHg 51%
    19:00 +29°C° 0 mm 1 mps 721 mmHg 57%
    20:00 +27°C° 0 mm 1 mps 722 mmHg 64%
    21:00 +26°C° 0.4 mm 1 mps 722 mmHg 73%
    22:00 +25°C° 0.4 mm 1 mps 722 mmHg 83%
    23:00 +24°C° 0.4 mm 1 mps 722 mmHg 92%

    25 February, Monday

    Time Temperature Precipitation Wind Pressure Humidity
    00:00 +24°C° 0.2 mm 1 mps 721 mmHg 94%
    01:00 +24°C° 0.2 mm 1 mps 721 mmHg 96%
    02:00 +24°C° 0.2 mm 1 mps 721 mmHg 98%
    03:00 +24°C° 0 mm 1 mps 721 mmHg 98%
    04:00 +24°C° 0 mm 1 mps 721 mmHg 97%
    05:00 +24°C° 0 mm 1 mps 721 mmHg 96%
    06:00 +25°C° 0 mm 1 mps 722 mmHg 91%
    07:00 +26°C° 0 mm 1 mps 722 mmHg 86%
    08:00 +27°C° 0 mm 1 mps 723 mmHg 81%
    09:00 +29°C° 0 mm 1 mps 723 mmHg 71%
    10:00 +31°C° 0 mm 1 mps 722 mmHg 61%
    11:00 +34°C° 0 mm 2 mps 722 mmHg 51%
    12:00 +35°C° 0 mm 2 mps 722 mmHg 46%
    13:00 +35°C° 0 mm 1 mps 721 mmHg 42%
    14:00 +36°C° 0 mm 1 mps 720 mmHg 37%
    15:00 +35°C° 0 mm 1 mps 720 mmHg 41%
    16:00 +34°C° 0 mm 1 mps 720 mmHg 44%
    17:00 +33°C° 0 mm 1 mps 720 mmHg 48%
    18:00 +31°C° 0.2 mm 1 mps 721 mmHg 58%
    19:00 +28°C° 0.2 mm 1 mps 721 mmHg 69%
    20:00 +26°C° 0.2 mm 1 mps 721 mmHg 79%
    21:00 +25°C° 0 mm 1 mps 722 mmHg 84%
    22:00 +25°C° 0 mm 1 mps 722 mmHg 89%
    23:00 +24°C° 0 mm 1 mps 722 mmHg 94%
    Show more